Weather History for Indianapolis, IN

Change the Weather History Date:

Monday, October 7, 2013

  Actual Average (KEYE) Record (KEYE)
Temperature  
Mean Temperature 53 °F 58 °F  
Max Temperature 63 °F 68 °F 91 °F (2007)
Min Temperature 43 °F 48 °F 32 °F (2000)
Degree Days  
Heating Degree Days 12 8  
Month to date heating degree days 49  
Since 1 July heating degree days 110  
Cooling Degree Days 0 1  
Month to date cooling degree days 7  
Year to date cooling degree days 1050  
Growing Degree Days 3 (Base 50)    
Moisture  
Dew Point 42 °F    
Average Humidity 74    
Maximum Humidity 90    
Minimum Humidity 46    
Precipitation  
Precipitation 0.05 in 0.10 in 1.58 in (1998)
Month to date precipitation 0.72  
Year to date precipitation 31.62  
Sea Level Pressure  
Sea Level Pressure 29.97 in    
Wind  
Wind Speed 5 mph (West)    
Max Wind Speed 17 mph    
Max Gust Speed 25 mph    
Visibility 10 miles    
Events Rain    
T = Trace of Precipitation, MM = Missing Value Source: NWS Daily Summary

Daily Weather History Graph

Daily Weather History Graph

Search for Another Location

Airport:

Trip Planner

Search our weather history database for the weather conditions in past years. The results will help you decide how hot, cold, wet, or windy it might be!

Date:

Astronomy

Oct. 07, 2013 Rise Set
Actual Time 7:47 AM EDT 7:17 PM EDT
Civil Twilight 7:20 AM EDT 7:44 PM EDT
Nautical Twilight 6:49 AM EDT 8:15 PM EDT
Astronomical Twilight 6:17 AM EDT 8:47 PM EDT
Moon 10:36 AM EDT (10/7) 9:01 PM EDT (10/7)
Length of Visible Light 12h 23m
Length of Day
11h 29m
Waxing Crescent, 8% of the Moon is Illuminated
Oct 7
Waxing Crescent
Oct 11
First Quarter
Oct 18
Full
Oct 26
Last Quarter
Nov 3
New

Hourly Weather History & Observations

Time (EDT) Temp. Windchill Dew Point Humidity Pressure Visibility Wind Dir Wind Speed Gust Speed Precip Events Conditions
12:15 AM 44.1 °F - 39.0 °F 82% 29.84 in 10.0 mi Calm Calm - N/A   Clear
12:35 AM 43.7 °F 41.1 °F 39.2 °F 84% 29.85 in 10.0 mi SW 4.6 mph - N/A   Clear
12:55 AM 44.8 °F 41.6 °F 38.8 °F 80% 29.85 in 10.0 mi WSW 5.8 mph - N/A   Clear
1:15 AM 45.0 °F 41.8 °F 38.8 °F 79% 29.85 in 10.0 mi WSW 5.8 mph - N/A   Clear
1:35 AM 44.8 °F 43.3 °F 39.2 °F 81% 29.84 in 10.0 mi SW 3.5 mph - N/A   Clear
1:55 AM 46.0 °F 44.8 °F 40.6 °F 81% 29.85 in 10.0 mi WSW 3.5 mph - N/A   Mostly Cloudy
2:15 AM 47.5 °F - 41.0 °F 78% 29.85 in 10.0 mi SW 3.5 mph - N/A   Overcast
2:35 AM 48.4 °F - 41.0 °F 76% 29.84 in 10.0 mi SW 3.5 mph - N/A   Overcast
2:55 AM 48.4 °F - 41.4 °F 77% 29.84 in 10.0 mi WSW 3.5 mph - N/A   Overcast
3:15 AM 48.4 °F - 41.5 °F 77% 29.84 in 7.0 mi WSW 9.2 mph - N/A Rain Light Rain
3:35 AM 47.7 °F - 42.6 °F 83% 29.83 in 7.0 mi SW 5.8 mph - 0.01 in   Drizzle
3:55 AM 47.5 °F - 43.0 °F 84% 29.83 in 7.0 mi SW 3.5 mph - 0.01 in   Overcast
4:15 AM 47.7 °F - 43.3 °F 85% 29.83 in 10.0 mi SSW 5.8 mph - N/A   Overcast
4:35 AM 48.2 °F - 43.0 °F 82% 29.83 in 10.0 mi SW 3.5 mph - N/A   Overcast
4:55 AM 48.4 °F - 43.2 °F 82% 29.83 in 10.0 mi Calm Calm - N/A   Overcast
5:15 AM 48.4 °F - 43.2 °F 82% 29.83 in 10.0 mi Calm Calm - N/A   Overcast
5:35 AM 48.6 °F - 43.5 °F 83% 29.83 in 10.0 mi Calm Calm - N/A   Overcast
5:55 AM 48.9 °F - 43.5 °F 82% 29.84 in 10.0 mi SW 3.5 mph - N/A Rain Rain
6:15 AM 48.0 °F - 43.7 °F 85% 29.85 in 5.0 mi WSW 5.8 mph - 0.01 in Rain Rain
6:35 AM 47.5 °F - 43.7 °F 87% 29.86 in 7.0 mi NW 9.2 mph - 0.01 in Rain Rain
6:55 AM 46.8 °F - 43.2 °F 87% 29.87 in 10.0 mi WNW 5.8 mph - 0.01 in   Overcast
7:15 AM 45.5 °F 42.5 °F 41.0 °F 84% 29.87 in 10.0 mi WNW 5.8 mph - N/A   Mostly Cloudy
7:35 AM 44.2 °F 40.3 °F 40.1 °F 85% 29.89 in 10.0 mi West 6.9 mph - N/A   Scattered Clouds
7:55 AM 44.6 °F 39.7 °F 41.0 °F 87% 29.90 in 10.0 mi West 9.2 mph - N/A   Mostly Cloudy
8:15 AM 45.1 °F 39.5 °F 41.4 °F 87% 29.91 in 10.0 mi West 11.5 mph 18.4 mph N/A   Overcast
8:35 AM 45.0 °F 40.1 °F 41.0 °F 86% 29.91 in 10.0 mi West 9.2 mph - N/A   Mostly Cloudy
8:55 AM 45.5 °F 39.9 °F 41.2 °F 85% 29.93 in 10.0 mi West 11.5 mph 18.4 mph 0.01 in   Mostly Cloudy
9:15 AM 45.9 °F 40.4 °F 41.2 °F 84% 29.94 in 10.0 mi West 11.5 mph 17.3 mph N/A   Overcast
9:35 AM 46.6 °F - 41.2 °F 81% 29.94 in 10.0 mi West 5.8 mph - N/A   Overcast
9:55 AM 47.5 °F - 41.2 °F 79% 29.95 in 10.0 mi West 8.1 mph 17.3 mph N/A   Overcast
10:15 AM 48.2 °F - 41.2 °F 77% 29.96 in 10.0 mi West 11.5 mph 19.6 mph N/A   Overcast
10:35 AM 49.1 °F - 41.4 °F 75% 29.98 in 10.0 mi West 11.5 mph 20.7 mph N/A   Overcast
10:55 AM 49.5 °F - 41.2 °F 73% 29.99 in 10.0 mi West 12.7 mph 18.4 mph N/A   Overcast
11:15 AM 52.2 °F - 41.5 °F 67% 29.99 in 10.0 mi West 13.8 mph 18.4 mph N/A   Mostly Cloudy
11:35 AM 52.9 °F - 41.2 °F 64% 29.99 in 10.0 mi WSW 11.5 mph 16.1 mph N/A   Mostly Cloudy
11:55 AM 54.9 °F - 42.1 °F 62% 29.99 in 10.0 mi West 11.5 mph - 0.01 in   Scattered Clouds
12:15 PM 55.4 °F - 41.0 °F 58% 30.00 in 10.0 mi West 10.4 mph 16.1 mph N/A   Clear
12:35 PM 56.8 °F - 41.9 °F 57% 30.00 in 10.0 mi West 12.7 mph 18.4 mph N/A   Scattered Clouds
12:55 PM 58.1 °F - 42.3 °F 56% 30.01 in 10.0 mi West 11.5 mph 17.3 mph N/A   Scattered Clouds
1:15 PM 57.9 °F - 41.9 °F 55% 30.01 in 10.0 mi West 17.3 mph 25.3 mph N/A   Scattered Clouds
1:35 PM 59.2 °F - 42.4 °F 54% 30.02 in 10.0 mi WNW 11.5 mph 20.7 mph N/A   Mostly Cloudy
1:55 PM 58.5 °F - 43.7 °F 58% 30.01 in 10.0 mi West 10.4 mph - N/A   Mostly Cloudy
2:15 PM 57.2 °F - 43.3 °F 60% 30.02 in 10.0 mi West 13.8 mph 21.9 mph N/A   Overcast
2:35 PM 55.9 °F - 44.4 °F 65% 30.02 in 10.0 mi WNW 9.2 mph 18.4 mph N/A   Overcast
2:55 PM 55.9 °F - 45.1 °F 67% 30.02 in 10.0 mi WSW 10.4 mph 19.6 mph N/A   Overcast
3:15 PM 57.6 °F - 44.8 °F 62% 30.03 in 10.0 mi West 12.7 mph 19.6 mph N/A   Mostly Cloudy
3:35 PM 59.4 °F - 45.1 °F 59% 30.03 in 10.0 mi WSW 10.4 mph 16.1 mph N/A   Scattered Clouds
3:55 PM 60.8 °F - 45.3 °F 57% 30.03 in 10.0 mi WSW 10.4 mph 17.3 mph N/A   Mostly Cloudy
4:15 PM 61.5 °F - 45.5 °F 56% 30.03 in 10.0 mi West 8.1 mph 16.1 mph N/A   Scattered Clouds
4:35 PM 62.2 °F - 44.2 °F 52% 30.03 in 10.0 mi West 10.4 mph 16.1 mph N/A   Scattered Clouds
4:55 PM 62.4 °F - 43.2 °F 49% 30.03 in 10.0 mi WNW 5.8 mph 18.4 mph 0.01 in   Scattered Clouds
5:15 PM 63.1 °F - 42.3 °F 46% 30.03 in 10.0 mi WNW 9.2 mph - N/A   Scattered Clouds
5:35 PM 62.8 °F - 42.3 °F 47% 30.03 in 10.0 mi WNW 6.9 mph - N/A   Clear
5:55 PM 63.0 °F - 42.1 °F 46% 30.03 in 10.0 mi WNW 8.1 mph - N/A   Clear
6:15 PM 63.0 °F - 42.4 °F 47% 30.04 in 10.0 mi West 5.8 mph - N/A   Clear
6:35 PM 62.1 °F - 42.3 °F 48% 30.04 in 10.0 mi West 3.5 mph - N/A   Clear
6:55 PM 60.4 °F - 40.5 °F 48% 30.05 in 10.0 mi Calm Calm - N/A   Clear
7:15 PM 55.2 °F - 45.9 °F 71% 30.06 in 10.0 mi Calm Calm - N/A   Clear
7:35 PM 51.8 °F - 45.9 °F 80% 30.06 in 10.0 mi South 3.5 mph - N/A   Clear
7:55 PM 51.4 °F - 45.3 °F 80% 30.07 in 10.0 mi Calm Calm - N/A   Clear
8:15 PM 49.5 °F - 45.3 °F 86% 30.08 in 10.0 mi Calm Calm - N/A   Clear
8:35 PM 48.7 °F - 45.0 °F 87% 30.09 in 10.0 mi Calm Calm - N/A   Clear
8:55 PM 48.2 °F - 44.8 °F 88% 30.09 in 10.0 mi Calm Calm - N/A   Clear
9:15 PM 47.8 °F - 44.6 °F 89% 30.10 in 10.0 mi Calm Calm - N/A   Clear
9:35 PM 47.3 °F - 43.9 °F 88% 30.11 in 10.0 mi Calm Calm - N/A   Clear
9:55 PM 46.6 °F - 43.3 °F 88% 30.12 in 10.0 mi Calm Calm - N/A   Clear
10:15 PM 46.4 °F - 43.5 °F 90% 30.13 in 10.0 mi Calm Calm - N/A   Clear
10:35 PM 45.9 °F - 43.0 °F 90% 30.13 in 10.0 mi Calm Calm - N/A   Clear
10:55 PM 45.5 °F - 42.6 °F 90% 30.14 in 10.0 mi Calm Calm - N/A   Clear
11:15 PM 45.1 °F - 42.3 °F 90% 30.14 in 10.0 mi Calm Calm - N/A   Clear
11:35 PM 44.6 °F - 41.9 °F 90% 30.15 in 10.0 mi Calm Calm - N/A   Clear
11:55 PM 44.6 °F - 41.9 °F 90% 30.16 in 10.0 mi Calm Calm - N/A   Clear